| time (UTC) | temp C | wind direction | speed KPH | gust KPH | rain 1hr cm | rain 24hr cm | rain mn cm | humidity % | barometer mb |
| 20260509222548 | 25 | 110 | 3.2 | 16.1 | 0.00 | 0.00 | 0.00 | 42 | 1018.1 |
| 20260509222048 | 25 | 0 | 4.8 | 16.1 | 0.00 | 0.00 | 0.00 | 38 | 1018.1 |
| 20260509221559 | 25 | 154 | 3.2 | 12.9 | 0.00 | 0.00 | 0.00 | 37 | 1018.2 |
| 20260509221047 | 25 | 132 | 1.6 | 11.3 | 0.00 | 0.00 | 0.00 | 39 | 1018.2 |
| 20260509220546 | 25 | 215 | 3.2 | 12.9 | 0.00 | 0.00 | 0.00 | 37 | 1018.3 |
| 20260509220056 | 25 | 197 | 3.2 | 12.9 | 0.00 | 0.00 | 0.00 | 38 | 1018.4 |
| 20260509215547 | 25 | 104 | 1.6 | 9.7 | 0.00 | 0.00 | 0.00 | 40 | 1018.4 |
| 20260509215045 | 25 | 162 | 3.2 | 11.3 | 0.00 | 0.00 | 0.00 | 40 | 1018.5 |
| 20260509214555 | 25 | 125 | 1.6 | 16.1 | 0.00 | 0.00 | 0.00 | 38 | 1018.5 |
| 20260509214047 | 25 | 148 | 3.2 | 16.1 | 0.00 | 0.00 | 0.00 | 36 | 1018.6 |
| 20260509213547 | 25 | 202 | 6.4 | 16.1 | 0.00 | 0.00 | 0.00 | 37 | 1018.5 |
| 20260509213052 | 25 | 273 | 1.6 | 8.0 | 0.00 | 0.00 | 0.00 | 39 | 1018.5 |
| 20260509212548 | 25 | 181 | 1.6 | 8.0 | 0.00 | 0.00 | 0.00 | 38 | 1018.5 |
| 20260509212047 | 25 | 137 | 1.6 | 9.7 | 0.00 | 0.00 | 0.00 | 36 | 1018.6 |
| 20260509211551 | 25 | 138 | 3.2 | 9.7 | 0.00 | 0.00 | 0.00 | 33 | 1018.6 |
| 20260509211047 | 25 | 218 | 3.2 | 9.7 | 0.00 | 0.00 | 0.00 | 32 | 1018.7 |
| 20260509210544 | 25 | 140 | 1.6 | 8.0 | 0.00 | 0.00 | 0.00 | 32 | 1018.7 |
| 20260509210105 | 25 | 228 | 1.6 | 9.7 | 0.00 | 0.00 | 0.00 | 30 | 1018.7 |
| 20260509205548 | 25 | 113 | 3.2 | 17.7 | 0.00 | 0.00 | 0.00 | 30 | 1018.8 |
| 20260509205047 | 25 | 171 | 3.2 | 17.7 | 0.00 | 0.00 | 0.00 | 34 | 1019.0 |
| 20260509204559 | 25 | 189 | 3.2 | 17.7 | 0.00 | 0.00 | 0.00 | 34 | 1019.0 |
| 20260509204047 | 25 | 213 | 3.2 | 12.9 | 0.00 | 0.00 | 0.00 | 37 | 1019.0 |
| 20260509203548 | 25 | 261 | 3.2 | 12.9 | 0.00 | 0.00 | 0.00 | 34 | 1019.0 |
| 20260509203050 | 25 | 211 | 1.6 | 11.3 | 0.00 | 0.00 | 0.00 | 36 | 1019.0 |
| 20260509202545 | 25 | 207 | 1.6 | 12.9 | 0.00 | 0.00 | 0.00 | 33 | 1019.0 |
| 20260509202050 | 25 | 125 | 3.2 | 12.9 | 0.00 | 0.00 | 0.00 | 35 | 1019.0 |
| 20260509201549 | 25 | 211 | 4.8 | 12.9 | 0.00 | 0.00 | 0.00 | 31 | 1018.9 |
| 20260509201047 | 25 | 205 | 3.2 | 6.4 | 0.00 | 0.00 | 0.00 | 33 | 1018.8 |
| 20260509200547 | 25 | 153 | 1.6 | 8.0 | 0.00 | 0.00 | 0.00 | 31 | 1019.0 |
| 20260509200106 | 25 | 132 | 1.6 | 11.3 | 0.00 | 0.00 | 0.00 | 30 | 1019.0 |
| 20260509195550 | 25 | 252 | 4.8 | 11.3 | 0.00 | 0.00 | 0.00 | 26 | 1019.0 |
| 20260509195047 | 25 | 184 | 3.2 | 11.3 | 0.00 | 0.00 | 0.00 | 30 | 1019.0 |
| 20260509194552 | 25 | 0 | 1.6 | 12.9 | 0.00 | 0.00 | 0.00 | 33 | 1019.0 |
| 20260509194048 | 25 | 235 | 3.2 | 12.9 | 0.00 | 0.00 | 0.00 | 31 | 1019.1 |
| 20260509193547 | 25 | 204 | 1.6 | 9.7 | 0.00 | 0.00 | 0.00 | 30 | 1019.1 |
| 20260509193051 | 25 | 127 | 3.2 | 8.0 | 0.00 | 0.00 | 0.00 | 34 | 1019.0 |
| 20260509192549 | 25 | 229 | 1.6 | 11.3 | 0.00 | 0.00 | 0.00 | 32 | 1019.0 |
| 20260509192048 | 24 | 200 | 1.6 | 11.3 | 0.00 | 0.00 | 0.00 | 35 | 1019.0 |
| 20260509191549 | 24 | 137 | 1.6 | 8.0 | 0.00 | 0.00 | 0.00 | 32 | 1019.0 |
| 20260509191048 | 24 | 250 | 1.6 | 9.7 | 0.00 | 0.00 | 0.00 | 35 | 1019.1 |
| 20260509190545 | 24 | 162 | 3.2 | 16.1 | 0.00 | 0.00 | 0.00 | 38 | 1019.0 |
| 20260509190057 | 24 | 0 | 1.6 | 16.1 | 0.00 | 0.00 | 0.00 | 36 | 1019.0 |
| 20260509185545 | 24 | 202 | 1.6 | 11.3 | 0.00 | 0.00 | 0.00 | 37 | 1019.1 |
| 20260509185045 | 23 | 252 | 1.6 | 9.7 | 0.00 | 0.00 | 0.00 | 40 | 1019.1 |
| 20260509184631 | 23 | 122 | 3.2 | 9.7 | 0.00 | 0.00 | 0.00 | 37 | 1019.2 |
| 20260509184047 | 23 | 139 | 1.6 | 8.0 | 0.00 | 0.00 | 0.00 | 40 | 1019.2 |
| 20260509183544 | 23 | 150 | 1.6 | 11.3 | 0.00 | 0.00 | 0.00 | 36 | 1019.2 |
| 20260509183106 | 23 | 148 | 1.6 | 11.3 | 0.00 | 0.00 | 0.00 | 37 | 1019.2 |
| 20260509182545 | 23 | 164 | 1.6 | 9.7 | 0.00 | 0.00 | 0.00 | 39 | 1019.2 |
| 20260509182044 | 23 | 0 | 1.6 | 6.4 | 0.00 | 0.00 | 0.00 | 38 | 1019.2 |
| 20260509181553 | 23 | 0 | 0.0 | 8.0 | 0.00 | 0.00 | 0.00 | 37 | 1019.2 |
| 20260509181046 | 23 | 136 | 1.6 | 8.0 | 0.00 | 0.00 | 0.00 | 37 | 1019.2 |
| 20260509180545 | 23 | 175 | 1.6 | 8.0 | 0.00 | 0.00 | 0.00 | 38 | 1019.2 |
| 20260509180111 | 23 | 175 | 3.2 | 8.0 | 0.00 | 0.00 | 0.00 | 35 | 1019.2 |
| 20260509175548 | 23 | 196 | 3.2 | 8.0 | 0.00 | 0.00 | 0.00 | 35 | 1019.2 |
| 20260509175048 | 23 | 0 | 1.6 | 6.4 | 0.00 | 0.00 | 0.00 | 35 | 1019.2 |
| 20260509174553 | 22 | 180 | 0.0 | 6.4 | 0.00 | 0.00 | 0.00 | 39 | 1019.2 |
| 20260509174045 | 22 | 0 | 1.6 | 6.4 | 0.00 | 0.00 | 0.00 | 38 | 1019.2 |
| 20260509173547 | 22 | 0 | 1.6 | 6.4 | 0.00 | 0.00 | 0.00 | 39 | 1019.1 |
| 20260509173051 | 22 | 213 | 0.0 | 6.4 | 0.00 | 0.00 | 0.00 | 36 | 1019.2 |
| 20260509172550 | 22 | 233 | 0.0 | 6.4 | 0.00 | 0.00 | 0.00 | 36 | 1019.2 |
| 20260509172046 | 22 | 0 | 0.0 | 3.2 | 0.00 | 0.00 | 0.00 | 37 | 1019.1 |
| 20260509171556 | 22 | 190 | 0.0 | 3.2 | 0.00 | 0.00 | 0.00 | 39 | 1019.2 |
| 20260509171047 | 22 | 0 | 0.0 | 3.2 | 0.00 | 0.00 | 0.00 | 38 | 1019.1 |
| 20260509170546 | 21 | 161 | 0.0 | 9.7 | 0.00 | 0.00 | 0.00 | 40 | 1019.1 |
| 20260509170059 | 21 | 0 | 1.6 | 9.7 | 0.00 | 0.00 | 0.00 | 40 | 1019.1 |
| 20260509165547 | 21 | 213 | 0.0 | 3.2 | 0.00 | 0.00 | 0.00 | 42 | 1019.0 |
| 20260509165044 | 20 | 0 | 0.0 | 3.2 | 0.00 | 0.00 | 0.00 | 44 | 1019.1 |
| 20260509164550 | 20 | 0 | 0.0 | 4.8 | 0.00 | 0.00 | 0.00 | 45 | 1019.1 |
| 20260509164048 | 20 | 55 | 1.6 | 4.8 | 0.00 | 0.00 | 0.00 | 48 | 1019.1 |
| 20260509163548 | 20 | 63 | 1.6 | 4.8 | 0.00 | 0.00 | 0.00 | 49 | 1019.1 |
| 20260509163110 | 19 | 0 | 0.0 | 4.8 | 0.00 | 0.00 | 0.00 | 49 | 1019.0 |
| 20260509162547 | 18 | 49 | 0.0 | 4.8 | 0.00 | 0.00 | 0.00 | 51 | 1019.0 |
| 20260509162047 | 18 | 0 | 0.0 | 3.2 | 0.00 | 0.00 | 0.00 | 48 | 1019.0 |
| 20260509161552 | 17 | 0 | 0.0 | 1.6 | 0.00 | 0.00 | 0.00 | 54 | 1019.0 |
| 20260509161046 | 17 | 0 | 0.0 | 3.2 | 0.00 | 0.00 | 0.00 | 53 | 1018.9 |
| 20260509160548 | 16 | 40 | 0.0 | 4.8 | 0.00 | 0.00 | 0.00 | 56 | 1018.9 |
| 20260509160052 | 16 | 40 | 0.0 | 4.8 | 0.00 | 0.00 | 0.00 | 55 | 1018.9 |
| 20260509155548 | 15 | 0 | 1.6 | 4.8 | 0.00 | 0.00 | 0.00 | 55 | 1018.8 |
| 20260509155047 | 15 | 0 | 0.0 | 3.2 | 0.00 | 0.00 | 0.00 | 56 | 1018.8 |
| 20260509154551 | 14 | 40 | 0.0 | 3.2 | 0.00 | 0.00 | 0.00 | 54 | 1018.8 |
| 20260509154048 | 13 | 0 | 0.0 | 3.2 | 0.00 | 0.00 | 0.00 | 56 | 1018.8 |
| 20260509153544 | 13 | 40 | 1.6 | 3.2 | 0.00 | 0.00 | 0.00 | 56 | 1018.8 |
| 20260509153055 | 12 | 49 | 0.0 | 3.2 | 0.00 | 0.00 | 0.00 | 56 | 1018.8 |
| 20260509152548 | 12 | 57 | 0.0 | 3.2 | 0.00 | 0.00 | 0.00 | 58 | 1018.8 |
| 20260509152047 | 12 | 57 | 0.0 | 3.2 | 0.00 | 0.00 | 0.00 | 56 | 1018.8 |
| 20260509151558 | 12 | 0 | 0.0 | 3.2 | 0.00 | 0.00 | 0.00 | 57 | 1018.8 |
| 20260509151044 | 11 | 0 | 1.6 | 4.8 | 0.00 | 0.00 | 0.00 | 56 | 1018.8 |
| 20260509150548 | 11 | 56 | 1.6 | 4.8 | 0.00 | 0.00 | 0.00 | 55 | 1018.8 |
| 20260509150055 | 11 | 50 | 1.6 | 4.8 | 0.00 | 0.00 | 0.00 | 56 | 1018.8 |
| 20260509145548 | 10 | 33 | 0.0 | 3.2 | 0.00 | 0.00 | 0.00 | 57 | 1018.8 |
| 20260509145047 | 10 | 20 | 0.0 | 3.2 | 0.00 | 0.00 | 0.00 | 62 | 1018.8 |
| 20260509144557 | 10 | 0 | 0.0 | 1.6 | 0.00 | 0.00 | 0.00 | 69 | 1018.8 |
| 20260509144048 | 10 | 0 | 0.0 | 0.0 | 0.00 | 0.00 | 0.00 | 69 | 1018.8 |
| 20260509143548 | 9 | 0 | 0.0 | 0.0 | 0.00 | 0.00 | 0.00 | 73 | 1018.8 |
| 20260509143055 | 9 | 0 | 0.0 | 1.6 | 0.00 | 0.00 | 0.00 | 74 | 1018.7 |
| 20260509142544 | 9 | 0 | 0.0 | 1.6 | 0.00 | 0.00 | 0.00 | 75 | 1018.7 |
| 20260509142047 | 9 | 0 | 0.0 | 1.6 | 0.00 | 0.00 | 0.00 | 74 | 1018.7 |
| 20260509141602 | 8 | 20 | 0.0 | 1.6 | 0.00 | 0.00 | 0.00 | 74 | 1018.6 |
| 20260509141050 | 8 | 0 | 0.0 | 1.6 | 0.00 | 0.00 | 0.00 | 74 | 1018.6 |
| 20260509140548 | 8 | 0 | 0.0 | 0.0 | 0.00 | 0.00 | 0.00 | 71 | 1018.5 |
| 20260509135548 | 8 | 0 | 0.0 | 0.0 | 0.00 | 0.00 | 0.00 | 70 | 1018.5 |
| 20260509135048 | 8 | 0 | 0.0 | 0.0 | 0.00 | 0.00 | 0.00 | 69 | 1018.5 |
| 20260509134551 | 8 | 0 | 0.0 | 0.0 | 0.00 | 0.00 | 0.00 | 67 | 1018.5 |
| 20260509134047 | 8 | 0 | 0.0 | 0.0 | 0.00 | 0.00 | 0.00 | 67 | 1018.5 |
| 20260509133550 | 8 | 0 | 0.0 | 0.0 | 0.00 | 0.00 | 0.00 | 62 | 1018.4 |
| 20260509133053 | 8 | 0 | 0.0 | 0.0 | 0.00 | 0.00 | 0.00 | 65 | 1018.4 |
| 20260509132545 | 8 | 0 | 0.0 | 0.0 | 0.00 | 0.00 | 0.00 | 64 | 1018.3 |
| 20260509132044 | 8 | 0 | 0.0 | 0.0 | 0.00 | 0.00 | 0.00 | 65 | 1018.3 |
| 20260509131551 | 8 | 0 | 0.0 | 0.0 | 0.00 | 0.00 | 0.00 | 64 | 1018.2 |
| 20260509131048 | 8 | 0 | 0.0 | 0.0 | 0.00 | 0.00 | 0.00 | 64 | 1018.2 |
| 20260509130549 | 8 | 0 | 0.0 | 0.0 | 0.00 | 0.00 | 0.00 | 65 | 1018.2 |
| 20260509130054 | 8 | 0 | 0.0 | 0.0 | 0.00 | 0.00 | 0.00 | 62 | 1018.2 |
| 20260509125546 | 8 | 0 | 0.0 | 0.0 | 0.00 | 0.00 | 0.00 | 61 | 1018.2 |
| 20260509125048 | 8 | 0 | 0.0 | 0.0 | 0.00 | 0.00 | 0.00 | 62 | 1018.2 |
| 20260509124558 | 8 | 0 | 0.0 | 0.0 | 0.00 | 0.00 | 0.00 | 61 | 1018.2 |
| 20260509124047 | 8 | 0 | 0.0 | 0.0 | 0.00 | 0.00 | 0.00 | 59 | 1018.2 |
| 20260509123547 | 8 | 0 | 0.0 | 0.0 | 0.00 | 0.00 | 0.00 | 61 | 1018.0 |
| 20260509123057 | 8 | 0 | 0.0 | 0.0 | 0.00 | 0.00 | 0.00 | 62 | 1018.0 |
| 20260509122546 | 8 | 0 | 0.0 | 0.0 | 0.00 | 0.00 | 0.00 | 62 | 1017.9 |
| 20260509122047 | 8 | 0 | 0.0 | 0.0 | 0.00 | 0.00 | 0.00 | 61 | 1017.9 |
| 20260509121551 | 8 | 0 | 0.0 | 0.0 | 0.00 | 0.00 | 0.00 | 60 | 1017.9 |
| 20260509121050 | 8 | 0 | 0.0 | 0.0 | 0.00 | 0.00 | 0.00 | 59 | 1017.9 |
| 20260509120548 | 8 | 0 | 0.0 | 0.0 | 0.00 | 0.00 | 0.00 | 57 | 1018.0 |
| 20260509120056 | 8 | 0 | 0.0 | 0.0 | 0.00 | 0.00 | 0.00 | 55 | 1017.9 |
| 20260509115548 | 8 | 0 | 0.0 | 0.0 | 0.00 | 0.00 | 0.00 | 55 | 1017.9 |
| 20260509115047 | 8 | 0 | 0.0 | 0.0 | 0.00 | 0.00 | 0.00 | 53 | 1018.0 |
| 20260509114605 | 8 | 0 | 0.0 | 0.0 | 0.00 | 0.00 | 0.00 | 52 | 1018.0 |
| 20260509114047 | 8 | 0 | 0.0 | 0.0 | 0.00 | 0.00 | 0.00 | 53 | 1018.0 |
| 20260509113548 | 8 | 0 | 0.0 | 0.0 | 0.00 | 0.00 | 0.00 | 56 | 1018.0 |
| 20260509113113 | 8 | 0 | 0.0 | 0.0 | 0.00 | 0.00 | 0.00 | 57 | 1018.1 |
| 20260509112546 | 8 | 0 | 0.0 | 0.0 | 0.00 | 0.00 | 0.00 | 58 | 1018.1 |
| 20260509112048 | 8 | 0 | 0.0 | 0.0 | 0.00 | 0.00 | 0.00 | 55 | 1018.0 |
| 20260509111555 | 8 | 0 | 0.0 | 0.0 | 0.00 | 0.00 | 0.00 | 57 | 1018.0 |
| 20260509111047 | 8 | 0 | 0.0 | 0.0 | 0.00 | 0.00 | 0.00 | 57 | 1018.0 |
| 20260509110548 | 8 | 0 | 0.0 | 0.0 | 0.00 | 0.00 | 0.00 | 57 | 1018.1 |
| 20260509110053 | 8 | 0 | 0.0 | 0.0 | 0.00 | 0.00 | 0.00 | 58 | 1018.2 |
| 20260509105547 | 8 | 0 | 0.0 | 0.0 | 0.00 | 0.00 | 0.00 | 59 | 1018.2 |
| 20260509105047 | 8 | 0 | 0.0 | 0.0 | 0.00 | 0.00 | 0.00 | 58 | 1018.2 |
| 20260509104558 | 8 | 0 | 0.0 | 0.0 | 0.00 | 0.00 | 0.00 | 58 | 1018.3 |
| 20260509104049 | 8 | 0 | 0.0 | 0.0 | 0.00 | 0.00 | 0.00 | 58 | 1018.3 |
| 20260509103548 | 8 | 0 | 0.0 | 0.0 | 0.00 | 0.00 | 0.00 | 62 | 1018.3 |
| 20260509103059 | 8 | 0 | 0.0 | 0.0 | 0.00 | 0.00 | 0.00 | 60 | 1018.3 |
| 20260509102547 | 8 | 0 | 0.0 | 0.0 | 0.00 | 0.00 | 0.00 | 58 | 1018.4 |
| 20260509102047 | 8 | 0 | 0.0 | 0.0 | 0.00 | 0.00 | 0.00 | 59 | 1018.4 |
| 20260509101553 | 8 | 0 | 0.0 | 0.0 | 0.00 | 0.00 | 0.00 | 58 | 1018.4 |
| 20260509101046 | 8 | 0 | 0.0 | 0.0 | 0.00 | 0.00 | 0.00 | 58 | 1018.4 |
| 20260509100546 | 8 | 0 | 0.0 | 0.0 | 0.00 | 0.00 | 0.00 | 58 | 1018.4 |
| 20260509100109 | 8 | 0 | 0.0 | 0.0 | 0.00 | 0.00 | 0.00 | 58 | 1018.3 |
| 20260509095547 | 8 | 0 | 0.0 | 0.0 | 0.00 | 0.00 | 0.00 | 57 | 1018.4 |
| 20260509095049 | 8 | 0 | 0.0 | 0.0 | 0.00 | 0.00 | 0.00 | 57 | 1018.4 |
| 20260509094555 | 8 | 0 | 0.0 | 0.0 | 0.00 | 0.00 | 0.00 | 59 | 1018.4 |
| 20260509094047 | 8 | 0 | 0.0 | 0.0 | 0.00 | 0.00 | 0.00 | 61 | 1018.5 |
| 20260509093547 | 8 | 0 | 0.0 | 0.0 | 0.00 | 0.00 | 0.00 | 61 | 1018.5 |
| 20260509093108 | 8 | 0 | 0.0 | 0.0 | 0.00 | 0.00 | 0.00 | 60 | 1018.5 |
| 20260509092552 | 8 | 0 | 0.0 | 0.0 | 0.00 | 0.00 | 0.00 | 67 | 1018.5 |
| 20260509092048 | 9 | 0 | 0.0 | 0.0 | 0.00 | 0.00 | 0.00 | 69 | 1018.5 |
| 20260509091606 | 9 | 0 | 0.0 | 0.0 | 0.00 | 0.00 | 0.00 | 68 | 1018.5 |
| 20260509091048 | 9 | 0 | 0.0 | 0.0 | 0.00 | 0.00 | 0.00 | 67 | 1018.5 |
| 20260509090547 | 9 | 0 | 0.0 | 0.0 | 0.00 | 0.00 | 0.00 | 69 | 1018.7 |
| 20260509090053 | 9 | 0 | 0.0 | 0.0 | 0.00 | 0.00 | 0.00 | 66 | 1018.7 |
| 20260509085542 | 9 | 0 | 0.0 | 0.0 | 0.00 | 0.00 | 0.00 | 65 | 1018.7 |
| 20260509085051 | 9 | 0 | 0.0 | 0.0 | 0.00 | 0.00 | 0.00 | 64 | 1018.8 |
| 20260509084552 | 9 | 0 | 0.0 | 0.0 | 0.00 | 0.00 | 0.00 | 65 | 1018.9 |
| 20260509084047 | 9 | 0 | 0.0 | 0.0 | 0.00 | 0.00 | 0.00 | 65 | 1019.0 |
| 20260509083546 | 9 | 0 | 0.0 | 0.0 | 0.00 | 0.00 | 0.00 | 65 | 1019.0 |
| 20260509083050 | 9 | 0 | 0.0 | 0.0 | 0.00 | 0.00 | 0.00 | 67 | 1018.9 |
| 20260509082547 | 9 | 0 | 0.0 | 0.0 | 0.00 | 0.00 | 0.00 | 65 | 1018.9 |
| 20260509082047 | 9 | 0 | 0.0 | 0.0 | 0.00 | 0.00 | 0.00 | 68 | 1018.9 |
| 20260509081601 | 9 | 0 | 0.0 | 0.0 | 0.00 | 0.00 | 0.00 | 67 | 1018.9 |
| 20260509081048 | 9 | 0 | 0.0 | 0.0 | 0.00 | 0.00 | 0.00 | 68 | 1019.0 |
| 20260509080547 | 10 | 0 | 0.0 | 0.0 | 0.00 | 0.00 | 0.00 | 67 | 1019.1 |
| 20260509080058 | 10 | 0 | 0.0 | 0.0 | 0.00 | 0.00 | 0.00 | 66 | 1019.2 |
| 20260509075548 | 10 | 0 | 0.0 | 0.0 | 0.00 | 0.00 | 0.00 | 65 | 1019.1 |
| 20260509075048 | 10 | 0 | 0.0 | 0.0 | 0.00 | 0.00 | 0.00 | 68 | 1019.3 |
| 20260509074556 | 10 | 0 | 0.0 | 0.0 | 0.00 | 0.00 | 0.00 | 69 | 1019.4 |
| 20260509074046 | 10 | 0 | 0.0 | 0.0 | 0.00 | 0.00 | 0.00 | 70 | 1019.4 |
| 20260509073550 | 10 | 0 | 0.0 | 0.0 | 0.00 | 0.00 | 0.00 | 70 | 1019.4 |
| 20260509073104 | 10 | 0 | 0.0 | 0.0 | 0.00 | 0.00 | 0.00 | 68 | 1019.4 |
| 20260509072549 | 10 | 0 | 0.0 | 0.0 | 0.00 | 0.00 | 0.00 | 68 | 1019.5 |
| 20260509072047 | 10 | 0 | 0.0 | 0.0 | 0.00 | 0.00 | 0.00 | 66 | 1019.5 |
| 20260509071553 | 10 | 0 | 0.0 | 0.0 | 0.00 | 0.00 | 0.00 | 65 | 1019.5 |
| 20260509071048 | 10 | 0 | 0.0 | 0.0 | 0.00 | 0.00 | 0.00 | 66 | 1019.6 |
| 20260509070547 | 10 | 0 | 0.0 | 0.0 | 0.00 | 0.00 | 0.00 | 67 | 1019.6 |
| 20260509065544 | 10 | 0 | 0.0 | 0.0 | 0.00 | 0.00 | 0.00 | 66 | 1019.6 |
| 20260509065044 | 10 | 0 | 0.0 | 0.0 | 0.00 | 0.00 | 0.00 | 67 | 1019.6 |
| 20260509064552 | 10 | 0 | 0.0 | 0.0 | 0.00 | 0.00 | 0.00 | 65 | 1019.6 |
| 20260509064047 | 10 | 0 | 0.0 | 0.0 | 0.00 | 0.00 | 0.00 | 66 | 1019.6 |
| 20260509063544 | 11 | 0 | 0.0 | 0.0 | 0.00 | 0.00 | 0.00 | 63 | 1019.7 |
| 20260509063056 | 11 | 0 | 0.0 | 1.6 | 0.00 | 0.00 | 0.00 | 65 | 1019.7 |
| 20260509062545 | 11 | 0 | 0.0 | 1.6 | 0.00 | 0.00 | 0.00 | 64 | 1019.7 |
| 20260509062045 | 11 | 0 | 0.0 | 1.6 | 0.00 | 0.00 | 0.00 | 65 | 1019.8 |
| 20260509061609 | 11 | 0 | 0.0 | 1.6 | 0.00 | 0.00 | 0.00 | 63 | 1019.9 |
| 20260509061048 | 11 | 20 | 0.0 | 1.6 | 0.00 | 0.00 | 0.00 | 63 | 1019.9 |
| 20260509060550 | 11 | 0 | 0.0 | 1.6 | 0.00 | 0.00 | 0.00 | 63 | 1019.9 |
| 20260509060056 | 11 | 0 | 0.0 | 1.6 | 0.00 | 0.00 | 0.00 | 62 | 1019.9 |
| 20260509055551 | 11 | 0 | 0.0 | 1.6 | 0.00 | 0.00 | 0.00 | 63 | 1020.0 |
| 20260509055047 | 11 | 0 | 0.0 | 1.6 | 0.00 | 0.00 | 0.00 | 59 | 1020.0 |
| 20260509054559 | 11 | 0 | 0.0 | 0.0 | 0.00 | 0.00 | 0.00 | 57 | 1020.0 |
| 20260509054050 | 11 | 0 | 0.0 | 0.0 | 0.00 | 0.00 | 0.00 | 56 | 1020.0 |
| 20260509053548 | 11 | 0 | 0.0 | 0.0 | 0.00 | 0.00 | 0.00 | 53 | 1020.0 |
| 20260509053101 | 11 | 0 | 0.0 | 0.0 | 0.00 | 0.00 | 0.00 | 52 | 1020.1 |
| 20260509052547 | 11 | 0 | 0.0 | 1.6 | 0.00 | 0.00 | 0.00 | 52 | 1020.0 |
| 20260509052050 | 11 | 0 | 0.0 | 1.6 | 0.00 | 0.00 | 0.00 | 52 | 1020.1 |
| 20260509051556 | 11 | 0 | 0.0 | 1.6 | 0.00 | 0.00 | 0.00 | 53 | 1020.0 |
| 20260509051049 | 11 | 20 | 0.0 | 1.6 | 0.00 | 0.00 | 0.00 | 54 | 1019.9 |
| 20260509050544 | 12 | 0 | 0.0 | 1.6 | 0.00 | 0.00 | 0.00 | 55 | 1019.9 |
| 20260509050056 | 12 | 0 | 0.0 | 3.2 | 0.00 | 0.00 | 0.00 | 56 | 1019.9 |
| 20260509045548 | 12 | 0 | 0.0 | 3.2 | 0.00 | 0.00 | 0.00 | 56 | 1019.8 |
| 20260509045044 | 12 | 20 | 0.0 | 3.2 | 0.00 | 0.00 | 0.00 | 54 | 1019.8 |
| 20260509044557 | 12 | 0 | 0.0 | 1.6 | 0.00 | 0.00 | 0.00 | 55 | 1019.8 |
| 20260509044045 | 12 | 0 | 0.0 | 1.6 | 0.00 | 0.00 | 0.00 | 54 | 1019.9 |
| 20260509043552 | 12 | 0 | 0.0 | 3.2 | 0.00 | 0.00 | 0.00 | 53 | 1019.8 |
| 20260509043059 | 12 | 12 | 0.0 | 3.2 | 0.00 | 0.00 | 0.00 | 53 | 1019.8 |
| 20260509042548 | 12 | 0 | 0.0 | 3.2 | 0.00 | 0.00 | 0.00 | 53 | 1019.7 |
| 20260509042048 | 12 | 12 | 0.0 | 3.2 | 0.00 | 0.00 | 0.00 | 54 | 1019.8 |
| 20260509041550 | 12 | 0 | 0.0 | 3.2 | 0.00 | 0.00 | 0.00 | 55 | 1019.7 |
| 20260509041044 | 12 | 5 | 0.0 | 3.2 | 0.00 | 0.00 | 0.00 | 57 | 1019.8 |
| 20260509040546 | 12 | 13 | 0.0 | 3.2 | 0.00 | 0.00 | 0.00 | 60 | 1019.7 |
| 20260509040058 | 12 | 0 | 1.6 | 4.8 | 0.00 | 0.00 | 0.00 | 66 | 1019.6 |
| 20260509035547 | 12 | 0 | 0.0 | 4.8 | 0.00 | 0.00 | 0.00 | 72 | 1019.6 |
| 20260509035045 | 12 | 0 | 0.0 | 3.2 | 0.00 | 0.00 | 0.00 | 77 | 1019.6 |
| 20260509034600 | 13 | 308 | 0.0 | 3.2 | 0.00 | 0.00 | 0.00 | 78 | 1019.6 |
| 20260509034046 | 13 | 0 | 0.0 | 3.2 | 0.00 | 0.00 | 0.00 | 78 | 1019.6 |
| 20260509033545 | 13 | 0 | 0.0 | 3.2 | 0.00 | 0.00 | 0.00 | 77 | 1019.6 |
| 20260509033050 | 13 | 0 | 0.0 | 1.6 | 0.00 | 0.00 | 0.00 | 77 | 1019.6 |
| 20260509032543 | 13 | 0 | 0.0 | 3.2 | 0.00 | 0.00 | 0.00 | 77 | 1019.5 |
| 20260509032048 | 13 | 0 | 0.0 | 3.2 | 0.00 | 0.00 | 0.00 | 75 | 1019.5 |
| 20260509031552 | 13 | 0 | 0.0 | 3.2 | 0.00 | 0.00 | 0.00 | 75 | 1019.4 |
| 20260509031048 | 14 | 0 | 0.0 | 4.8 | 0.00 | 0.00 | 0.00 | 75 | 1019.3 |
| 20260509030548 | 14 | 0 | 0.0 | 4.8 | 0.00 | 0.00 | 0.00 | 74 | 1019.4 |
| 20260509030052 | 15 | 0 | 0.0 | 3.2 | 0.00 | 0.00 | 0.00 | 73 | 1019.4 |
| 20260509025547 | 15 | 308 | 0.0 | 3.2 | 0.00 | 0.00 | 0.00 | 74 | 1019.3 |
| 20260509025050 | 15 | 308 | 0.0 | 3.2 | 0.00 | 0.00 | 0.00 | 74 | 1019.2 |
| 20260509024551 | 15 | 0 | 0.0 | 3.2 | 0.00 | 0.00 | 0.00 | 72 | 1019.3 |
| 20260509024047 | 15 | 308 | 0.0 | 3.2 | 0.00 | 0.00 | 0.00 | 70 | 1019.3 |
| 20260509023547 | 16 | 0 | 0.0 | 3.2 | 0.00 | 0.00 | 0.00 | 67 | 1019.3 |
| 20260509023052 | 16 | 0 | 0.0 | 0.0 | 0.00 | 0.00 | 0.00 | 67 | 1019.2 |
| 20260509022548 | 16 | 0 | 0.0 | 1.6 | 0.00 | 0.00 | 0.00 | 65 | 1019.1 |
| 20260509022047 | 16 | 0 | 0.0 | 1.6 | 0.00 | 0.00 | 0.00 | 64 | 1019.2 |
| 20260509021551 | 17 | 308 | 0.0 | 3.2 | 0.00 | 0.00 | 0.00 | 62 | 1019.1 |
| 20260509021045 | 17 | 0 | 0.0 | 3.2 | 0.00 | 0.00 | 0.00 | 60 | 1019.0 |
| 20260509020544 | 17 | 0 | 0.0 | 3.2 | 0.00 | 0.00 | 0.00 | 60 | 1019.0 |
| 20260509020053 | 18 | 0 | 0.0 | 4.8 | 0.00 | 0.00 | 0.00 | 58 | 1019.0 |
| 20260509015548 | 18 | 0 | 0.0 | 4.8 | 0.00 | 0.00 | 0.00 | 58 | 1019.0 |
| 20260509015048 | 18 | 308 | 0.0 | 4.8 | 0.00 | 0.00 | 0.00 | 56 | 1019.0 |
| 20260509014551 | 18 | 222 | 0.0 | 4.8 | 0.00 | 0.00 | 0.00 | 54 | 1019.0 |
| 20260509014048 | 19 | 0 | 0.0 | 4.8 | 0.00 | 0.00 | 0.00 | 53 | 1019.0 |
| 20260509013549 | 20 | 219 | 0.0 | 4.8 | 0.00 | 0.00 | 0.00 | 52 | 1019.0 |
| 20260509013049 | 20 | 273 | 0.0 | 4.8 | 0.00 | 0.00 | 0.00 | 50 | 1019.0 |
| 20260509012550 | 20 | 190 | 1.6 | 6.4 | 0.00 | 0.00 | 0.00 | 47 | 1019.0 |
| 20260509012050 | 20 | 0 | 1.6 | 8.0 | 0.00 | 0.00 | 0.00 | 43 | 1018.9 |
| 20260509011553 | 21 | 263 | 1.6 | 8.0 | 0.00 | 0.00 | 0.00 | 41 | 1019.1 |
| 20260509011047 | 21 | 174 | 3.2 | 8.0 | 0.00 | 0.00 | 0.00 | 41 | 1019.0 |
| 20260509010548 | 21 | 234 | 3.2 | 8.0 | 0.00 | 0.00 | 0.00 | 40 | 1019.0 |
| 20260509010050 | 21 | 0 | 1.6 | 16.1 | 0.00 | 0.00 | 0.00 | 42 | 1018.9 |
| 20260509005547 | 21 | 0 | 4.8 | 16.1 | 0.00 | 0.00 | 0.00 | 38 | 1018.9 |
| 20260509005046 | 21 | 220 | 1.6 | 12.9 | 0.00 | 0.00 | 0.00 | 42 | 1018.9 |
| 20260509004551 | 22 | 171 | 1.6 | 14.5 | 0.00 | 0.00 | 0.00 | 42 | 1019.1 |
| 20260509004044 | 22 | 234 | 4.8 | 14.5 | 0.00 | 0.00 | 0.00 | 41 | 1019.1 |
| 20260509003548 | 22 | 227 | 3.2 | 14.5 | 0.00 | 0.00 | 0.00 | 40 | 1019.1 |
| 20260509003051 | 22 | 225 | 1.6 | 14.5 | 0.00 | 0.00 | 0.00 | 41 | 1019.1 |
| 20260509002544 | 22 | 153 | 3.2 | 11.3 | 0.00 | 0.00 | 0.00 | 40 | 1019.2 |
| 20260509002047 | 23 | 175 | 3.2 | 11.3 | 0.00 | 0.00 | 0.00 | 39 | 1019.1 |
| 20260509001551 | 23 | 0 | 0.0 | 16.1 | 0.00 | 0.00 | 0.00 | 42 | 1019.2 |
| 20260509001048 | 23 | 0 | 3.2 | 16.1 | 0.00 | 0.00 | 0.00 | 39 | 1019.1 |
| 20260509000547 | 23 | 144 | 1.6 | 12.9 | 0.00 | 0.00 | 0.00 | 39 | 1019.2 |
| 20260509000051 | 23 | 148 | 3.2 | 16.1 | 0.00 | 0.00 | 0.00 | 37 | 1019.3 |
| 20260508235547 | 23 | 271 | 4.8 | 16.1 | 0.00 | 0.00 | 0.00 | 41 | 1019.4 |
| 20260508235045 | 23 | 112 | 1.6 | 11.3 | 0.00 | 0.00 | 0.00 | 41 | 1019.4 |
| 20260508234555 | 23 | 150 | 4.8 | 16.1 | 0.00 | 0.00 | 0.00 | 41 | 1019.4 |
| 20260508234045 | 23 | 165 | 3.2 | 16.1 | 0.00 | 0.00 | 0.00 | 39 | 1019.4 |
| 20260508233544 | 23 | 234 | 1.6 | 11.3 | 0.00 | 0.00 | 0.00 | 36 | 1019.3 |
| 20260508233102 | 23 | 109 | 3.2 | 17.7 | 0.00 | 0.00 | 0.00 | 37 | 1019.3 |
| 20260508232546 | 23 | 149 | 4.8 | 17.7 | 0.00 | 0.00 | 0.00 | 41 | 1019.4 |
| 20260508232044 | 23 | 180 | 4.8 | 14.5 | 0.00 | 0.00 | 0.00 | 40 | 1019.5 |
| 20260508231626 | 23 | 231 | 6.4 | 14.5 | 0.00 | 0.00 | 0.00 | 39 | 1019.6 |
| 20260508231048 | 24 | 186 | 3.2 | 11.3 | 0.00 | 0.00 | 0.00 | 41 | 1019.6 |
| 20260508230546 | 24 | 329 | 0.0 | 22.5 | 0.00 | 0.00 | 0.00 | 41 | 1019.6 |
| 20260508230059 | 24 | 254 | 6.4 | 22.5 | 0.00 | 0.00 | 0.00 | 40 | 1019.6 |
| 20260508225547 | 24 | 189 | 4.8 | 17.7 | 0.00 | 0.00 | 0.00 | 40 | 1019.7 |
| 20260508225047 | 24 | 110 | 3.2 | 17.7 | 0.00 | 0.00 | 0.00 | 43 | 1019.6 |
| 20260508224550 | 24 | 138 | 3.2 | 17.7 | 0.00 | 0.00 | 0.00 | 41 | 1019.7 |
| 20260508224047 | 24 | 132 | 4.8 | 16.1 | 0.00 | 0.00 | 0.00 | 42 | 1019.9 |
| 20260508223547 | 24 | 129 | 1.6 | 11.3 | 0.00 | 0.00 | 0.00 | 41 | 1019.9 |
| 20260508223052 | 24 | 202 | 4.8 | 16.1 | 0.00 | 0.00 | 0.00 | 39 | 1020.0 |